Location: Bletchingley
(51.2333°N, 0.1000°W)
Time: 14:42:53
(UTC+00:00)

Cosmos 1634 Rocket - Pass Details

Date: 18 September 2020
Orbit: 961 x 991 km, 82.9° (Epoch: 27 October)

Event Time Altitude Azimuth Distance (km) Brightness Sun altitude
Exits shadow 21:19:01 27° 214° (SW) 1,757 5.2 -27.9°
Maximum altitude 21:22:23 60° 284° (WNW) 1,101 4.4 -28.3°
Drops below altitude 10° 21:28:32 10° 4° (N) 2,720 6.8 -29.0°
Sets 21:31:07 0° 9° (N) 3,674 7.5 -29.2°
